Regional Weather Roundup
Issued by NWS

Home | Current Version | Previous Version | Text Only | Print | Product List | Glossary Off
Versions: 1 2 3 4 5 6 7 8 9 10 11 12 13 14 15 16 17 18 19 20 21 22 23 24 25 26 27 28 29 30 31 32 33 34 35 36 37 38 39 40 41 42 43 44 45 46 47 48 49 50

000
ASUS45 KBOI 060310
RWRID

IDAHO REGIONAL WEATHER ROUNDUP
NATIONAL WEATHER SERVICE BOISE ID
800 PM MST FRI FEB 05 2016

NOTE: "FAIR" INDICATES FEW OR NO CLOUDS BELOW 12000 FEET
WITH NO SIGNIFICANT WEATHER AND/OR OBSTRUCTIONS TO VISIBILITY

IDZ012-014-060400-
SOUTHWEST IDAHO


CITY           SKY/WX    TMP DP  RH WIND       PRES   REMARKS
BOISE          MOCLDY    36  30  79 SE16      30.43F WCI  26
CALDWELL       FOG       33  32  96 NW3       30.46S VSB 1/4
MOUNTAIN HOME  MOCLDY    32  32 100 E20       30.45F WCI  20
$$

IDZ016-017-060400-
SOUTHCENTRAL IDAHO


CITY           SKY/WX    TMP DP  RH WIND       PRES   REMARKS
BURLEY         PTCLDY    25  22  88 NE8       30.47F WCI  16
JEROME         MOCLDY    23  21  92 NE20      30.47F FOG     WCI   8
TWIN FALLS     CLEAR     26  24  92 E6        30.47S WCI  19
$$

IDZ019>023-060400-
SOUTHEAST IDAHO


CITY           SKY/WX    TMP DP  RH WIND       PRES   REMARKS
IDAHO FALLS    LGT SNOW  20  18  92 N5        30.51S FOG     WCI  13
POCATELLO      CLOUDY    21  19  92 N5        30.51F WCI  15
REXBURG        CLOUDY    21  20  96 NW3       30.49S
$$

IDZ006-010-011-018-031-032-060400-
CENTRAL IDAHO MOUNTAINS


CITY           SKY/WX    TMP DP  RH WIND       PRES   REMARKS
MCCALL         CLOUDY    28  26  92 CALM      30.36F
HAILEY         CLEAR    N/A N/A N/A NW8       30.46F
STANLEY          N/A     19  14  81 S5        30.38F WCI  12
SALMON         CLOUDY    16  10  79 NW6       30.40S WCI   7
CHALLIS        CLEAR     14   9  80 SE5       30.39F WCI   6
$$

IDZ002-004-006-007-026-060400-
NORTHERN IDAHO


CITY           SKY/WX    TMP DP  RH WIND       PRES   REMARKS
LEWISTON       CLOUDY    47  34  60 SW3       30.22S
LOWELL           N/A     37  35  92 NW5       30.33F WCI  33
COEUR D`ALENE  CLOUDY    41  34  75 CALM      30.11F
MULLAN PASS    CLOUDY    29  27  92 VRB7G18   30.14F FOG     WCI  22
$$



USA.gov is the U.S. government's official web portal to all federal, state and local government web resources and services.